Time,TemperatureF,DewpointF,PressureIn,WindDirection,WindDirectionDegrees,WindSpeedMPH,WindSpeedGustMPH,Humidity,HourlyPrecipIn,Conditions,Clouds,dailyrainin,SoftwareType,DateUTC
2013-07-13 00:01:00,65.6,50.0,29.76,WNW,300,0.0,0.0,57,0.00,,SKC,0.00,VWS V12.07,2013-07-13 07:01:00,
2013-07-13 01:01:00,65.6,50.0,29.76,WNW,294,0.0,0.0,57,0.00,,SKC,0.00,VWS V12.07,2013-07-13 08:01:00,
2013-07-13 02:01:00,65.5,49.9,29.75,WNW,292,0.0,0.0,57,0.00,,SKC,0.00,VWS V12.07,2013-07-13 09:01:00,
2013-07-13 03:01:00,65.6,49.0,29.75,WNW,288,0.0,0.0,55,0.00,,SKC,0.00,VWS V12.07,2013-07-13 10:01:00,
2013-07-13 04:01:00,65.2,48.6,29.75,WNW,288,0.0,0.0,55,0.00,,SKC,0.00,VWS V12.07,2013-07-13 11:01:00,
2013-07-13 05:01:00,65.3,46.7,29.75,WNW,294,0.0,0.0,51,0.00,,SKC,0.00,VWS V12.07,2013-07-13 12:01:00,
2013-07-13 06:01:00,65.2,49.1,29.76,WNW,294,0.0,0.0,56,0.00,,SKC,0.00,VWS V12.07,2013-07-13 13:01:00,
2013-07-13 07:01:00,69.8,48.1,29.77,WNW,294,0.0,0.0,46,0.00,,SKC,0.00,VWS V12.07,2013-07-13 14:01:00,
2013-07-13 08:01:00,73.2,52.9,29.78,NNE,25,0.0,0.0,49,0.00,,SKC,0.00,VWS V12.07,2013-07-13 15:01:00,
2013-07-13 09:01:00,73.9,50.6,29.79,SW,218,0.0,3.0,44,0.00,,SKC,0.00,VWS V12.07,2013-07-13 16:01:00,
2013-07-13 10:01:00,76.3,50.9,29.78,West,264,0.0,2.0,41,0.00,,SKC,0.00,VWS V12.07,2013-07-13 17:01:00,
2013-07-13 11:01:00,74.4,47.9,29.79,NNE,31,0.0,1.0,39,0.00,,SKC,0.00,VWS V12.07,2013-07-13 18:01:00,
2013-07-13 12:02:00,73.7,50.5,29.78,West,281,0.0,2.0,44,0.00,,SKC,0.00,VWS V12.07,2013-07-13 19:02:00,
2013-07-13 13:00:00,75.1,49.8,29.78,NNE,31,0.0,7.0,41,0.00,,SKC,0.00,VWS V12.07,2013-07-13 20:00:00,
2013-07-13 14:01:00,74.4,49.8,29.77,NE,53,2.0,5.0,42,0.00,,SKC,0.00,VWS V12.07,2013-07-13 21:01:00,
2013-07-13 15:01:00,74.7,50.1,29.76,East,92,0.0,0.0,42,0.00,,SKC,0.00,VWS V12.07,2013-07-13 22:01:00,
2013-07-13 16:01:00,77.2,51.7,29.75,WNW,290,2.0,2.0,41,0.00,,SKC,0.00,VWS V12.07,2013-07-13 23:01:00,
2013-07-13 17:01:00,75.4,51.4,29.74,WSW,244,11.0,11.0,43,0.00,,SKC,0.00,VWS V12.07,2013-07-14 00:01:00,
2013-07-13 18:01:00,77.0,48.8,29.74,North,349,2.0,2.0,37,0.00,,SKC,0.00,VWS V12.07,2013-07-14 01:01:00,
2013-07-13 19:01:00,72.5,48.1,29.74,West,270,3.0,5.0,42,0.00,,SKC,0.00,VWS V12.07,2013-07-14 02:01:00,
2013-07-13 20:01:00,68.8,44.8,29.76,West,263,0.0,0.0,42,0.00,,SKC,0.00,VWS V12.07,2013-07-14 03:01:00,
2013-07-13 22:01:00,68.3,45.6,29.77,West,273,2.0,4.0,44,0.00,,SKC,0.00,VWS V12.07,2013-07-14 05:01:00,
2013-07-13 23:01:00,68.6,46.4,29.77,West,278,0.0,3.0,45,0.00,,SKC,0.00,VWS V12.07,2013-07-14 06:01:00,